Theta_e
319 317 319 322 323 326 328 334 334 332 332 321 319 321 318 320 322 322 321 320 322 320 320 321 321 321 318 319 321 323 323 322 324 327 325 330 335 333 334 338 344 346 344 343 340 339 343 345 344 344 344 344 344 344 342 339 338 337 337 336 338 339 340 340 339 339 339 339 338 337 336 335 335 335 336 337 337 336 337 337 337 337 337 337 336 334 333 328 322 321 319 319 318 320 322 323 324
320 319 321 323 322 327 334 339 332 327 328 318 316 320 317 321 322 320 321 320 321 319 322 322 321 322 319 319 321 325 327 326 328 330 330 331 331 329 335 339 342 346 344 342 341 339 343 344 344 344 344 344 344 343 343 340 339 338 337 336 337 338 339 340 339 339 339 339 338 336 334 334 333 333 335 336 337 336 336 336 336 337 337 337 337 335 333 327 321 320 318 315 311 310 312 315 317
322 322 323 324 326 328 336 339 327 323 324 316 314 319 319 321 321 320 321 319 320 320 321 322 321 320 320 321 320 324 325 330 331 330 333 331 330 330 335 340 341 344 343 343 341 338 341 343 344 344 344 344 344 344 343 341 340 339 337 337 336 336 338 339 339 339 338 339 337 334 333 333 331 331 333 334 335 336 336 336 336 336 337 337 337 335 332 327 324 323 322 318 313 309 309 312 312
321 323 323 325 336 334 335 334 329 328 320 317 316 316 320 320 321 320 321 320 320 321 320 321 320 317 320 322 319 322 323 329 332 332 335 330 332 334 335 339 341 343 343 343 341 338 339 343 344 344 345 345 344 344 343 342 341 340 338 338 336 335 336 338 339 338 338 338 337 334 332 331 329 328 330 331 333 336 336 335 335 335 336 336 336 334 331 327 326 326 325 323 317 310 309 310 307
320 322 322 324 338 334 331 329 332 331 318 323 321 314 320 319 321 319 319 320 319 321 320 319 318 316 321 322 320 325 322 325 331 333 335 330 334 337 336 338 341 344 344 343 341 339 339 341 343 344 344 344 344 344 343 343 341 340 339 338 337 335 335 337 338 338 337 337 337 335 332 330 329 328 327 327 330 334 335 334 334 333 334 335 335 334 331 328 326 327 328 325 319 311 308 307 301
320 323 324 324 330 326 333 327 322 322 316 326 321 314 319 318 320 319 318 317 317 320 320 319 318 320 323 322 323 328 326 325 331 333 333 332 336 338 338 337 338 342 343 343 342 341 342 342 342 343 344 343 344 344 344 343 342 340 339 338 337 336 335 336 337 337 336 336 336 335 333 330 329 328 326 325 326 331 334 333 333 332 333 333 334 333 330 327 327 328 328 325 319 312 308 304 299
323 325 329 332 331 327 336 327 318 321 318 321 319 316 319 317 319 317 317 316 316 318 318 318 318 322 322 322 326 328 329 328 332 334 331 332 338 337 337 338 339 342 343 344 343 342 343 343 342 342 343 344 344 344 344 343 342 341 339 338 337 337 335 334 335 336 336 336 335 333 333 331 329 329 326 323 324 328 332 332 332 332 332 332 331 331 328 326 329 329 327 324 317 311 307 302 299
323 325 333 340 337 332 334 325 320 325 321 317 319 319 318 319 319 316 317 317 317 316 317 318 318 322 318 321 327 327 330 331 332 334 332 332 337 338 337 339 341 343 344 344 343 343 344 344 343 343 343 344 344 343 343 343 342 341 340 339 337 337 335 334 335 336 336 335 335 333 334 332 329 329 326 324 324 327 331 331 332 333 334 332 329 327 327 328 330 329 326 322 316 312 307 301 299
323 325 334 338 332 330 327 321 319 321 320 318 318 319 319 320 319 317 317 317 318 317 318 317 319 323 318 319 323 322 326 330 332 333 334 332 333 338 339 341 341 344 344 344 343 343 344 343 343 343 343 343 344 343 343 343 342 342 340 340 338 337 336 335 336 337 337 335 336 335 334 332 331 331 328 326 326 328 331 332 333 333 333 331 328 327 329 330 330 328 325 322 318 314 309 302 299
326 324 330 336 328 322 320 318 319 319 319 320 318 318 319 318 319 318 317 317 318 317 317 316 319 321 318 319 319 317 319 326 331 331 333 333 331 334 339 341 340 342 343 342 343 343 343 343 342 342 343 343 344 343 343 343 342 342 341 340 339 339 337 336 336 337 337 336 336 336 335 334 333 333 331 327 327 329 332 332 334 334 333 331 328 329 330 330 329 328 325 321 318 313 310 304 299
332 327 334 337 326 319 321 321 319 320 318 318 317 318 318 319 319 318 318 317 317 318 317 317 318 318 317 317 316 313 313 319 328 330 331 332 330 328 334 339 339 340 340 340 340 340 339 339 340 340 342 343 342 342 343 343 342 342 341 341 340 339 338 337 336 336 337 337 336 336 335 334 334 335 333 331 329 331 332 333 333 333 333 331 329 331 331 330 329 327 324 320 316 313 310 305 299
329 331 338 328 321 320 322 323 320 320 318 318 317 317 318 318 319 317 318 317 317 319 317 317 316 317 318 317 314 311 311 313 321 329 330 330 329 326 326 331 336 338 337 338 338 337 338 336 337 339 341 342 342 342 342 342 341 342 341 341 341 339 339 338 337 336 336 337 336 336 336 335 335 335 334 333 333 332 332 333 333 333 333 331 330 331 331 330 328 326 324 319 316 315 312 306 300
327 329 335 322 325 327 323 323 321 322 318 318 319 317 318 317 318 316 318 318 318 319 316 316 316 318 318 316 315 312 312 311 315 326 329 329 329 326 325 326 331 336 336 337 337 336 338 338 338 340 340 342 343 341 340 341 341 341 341 341 341 340 339 338 338 337 337 337 336 336 336 335 335 335 334 335 335 334 333 334 334 333 333 333 332 331 331 330 328 327 323 320 319 318 314 309 302
326 328 332 324 327 327 325 323 321 323 317 317 319 316 319 317 318 317 319 319 317 318 315 314 315 318 317 314 317 316 313 311 315 324 326 326 325 324 325 327 329 331 333 334 335 335 337 338 338 340 340 340 341 340 339 342 342 341 341 340 340 339 339 338 338 337 337 336 335 335 335 335 335 334 334 335 335 335 334 334 334 333 333 333 332 331 331 329 328 327 324 322 322 320 316 313 305
325 329 331 324 324 321 323 325 324 327 319 317 318 317 318 316 318 319 320 319 317 316 314 314 314 317 318 317 319 316 312 312 316 323 325 323 322 321 320 324 325 326 328 330 332 333 335 337 338 339 339 339 339 338 338 340 341 339 340 340 340 339 339 338 338 337 336 335 334 334 334 335 335 334 334 334 334 335 334 334 334 333 333 333 332 331 331 330 328 327 326 324 324 322 319 316 311
325 335 331 321 320 317 319 324 325 325 318 319 318 317 319 316 318 318 317 318 317 316 315 316 314 315 317 318 316 311 313 315 316 321 324 322 322 321 318 319 320 320 321 323 327 328 332 335 337 337 338 338 338 338 338 338 338 338 339 338 339 339 339 339 338 337 336 335 334 333 333 333 334 333 332 332 334 334 334 334 334 334 333 333 332 332 331 330 328 328 326 325 324 323 322 320 317
335 342 329 321 321 316 317 321 323 323 319 319 317 317 319 316 318 317 315 317 317 315 314 314 311 312 314 314 312 312 314 315 316 319 321 321 321 319 318 318 318 318 318 319 320 322 326 331 335 336 337 337 337 338 338 338 339 339 339 338 338 338 339 338 337 337 336 335 334 333 332 331 332 333 333 332 333 333 333 333 334 334 333 333 332 332 331 330 329 328 326 325 325 324 323 322 321
341 339 325 320 322 318 317 320 322 323 320 319 317 318 319 317 318 317 315 317 315 314 313 312 311 311 311 311 312 313 315 315 316 317 317 318 317 317 316 317 317 317 317 317 317 317 321 325 330 334 336 337 337 338 337 339 339 339 339 338 337 337 338 338 337 336 337 336 335 334 333 332 333 334 335 333 333 333 332 332 333 333 333 333 332 332 331 330 329 328 326 326 325 324 324 323 322
332 334 326 320 321 318 317 319 319 320 319 319 318 319 319 318 318 316 316 316 315 317 314 311 312 312 311 311 312 313 313 315 315 314 315 314 314 315 314 315 316 316 316 316 316 316 317 320 324 329 333 335 337 338 337 338 338 337 337 337 337 336 337 337 336 336 336 337 336 336 335 334 335 336 336 335 334 333 333 332 332 333 334 333 332 332 331 330 329 328 327 326 325 324 324 323 323
326 332 328 319 319 317 316 319 318 318 319 319 319 318 318 317 316 316 316 317 318 318 316 314 314 312 312 312 311 312 313 313 314 314 314 313 313 313 313 314 315 315 315 315 315 315 315 316 319 324 330 334 336 337 336 336 336 336 337 337 337 336 336 336 336 336 336 336 336 337 335 335 336 336 336 336 335 334 333 333 333 333 333 333 332 332 330 330 329 328 327 326 326 324 323 324 323
325 328 325 318 319 318 317 319 319 318 319 319 319 317 316 316 316 317 316 317 319 318 315 316 315 312 313 312 310 311 312 312 312 313 313 313 313 312 313 313 313 314 314 315 315 315 315 315 316 320 326 332 335 336 335 335 336 336 337 337 338 338 338 338 337 336 336 337 337 336 335 335 335 335 335 335 335 334 334 333 333 333 333 333 332 331 331 330 329 329 328 327 326 325 324 324 323
323 321 320 319 319 319 317 318 320 318 318 320 318 316 316 316 317 318 317 318 321 318 314 314 313 311 312 312 310 310 310 311 311 311 312 313 312 312 312 312 313 314 314 314 314 314 315 316 317 317 321 330 334 334 335 335 335 336 336 337 339 338 338 337 336 336 336 336 336 334 334 335 334 334 334 334 334 333 333 333 333 333 332 332 332 331 331 331 330 329 330 328 326 325 325 325 325
324 321 319 320 319 318 317 318 319 318 318 319 317 316 316 317 317 317 320 319 318 314 312 312 311 310 310 310 310 310 309 309 311 311 311 312 312 311 311 311 313 313 314 314 313 314 317 319 319 316 318 329 333 333 334 334 335 336 335 337 338 337 336 335 335 335 335 335 335 334 334 334 333 333 333 334 333 333 333 332 332 333 332 332 332 331 331 331 330 329 330 328 326 326 326 325 325
323 321 319 319 319 318 319 319 318 318 318 317 316 316 316 318 316 319 321 315 312 311 308 308 308 308 309 310 309 309 309 310 311 311 311 312 311 311 311 311 312 313 314 314 314 316 318 320 321 319 322 330 332 331 332 333 335 335 335 336 336 335 334 334 334 333 334 334 334 334 333 333 333 332 332 332 333 333 333 332 331 332 332 332 331 331 330 330 329 330 329 328 327 327 326 326 326
321 320 319 320 319 318 321 321 318 318 318 316 316 317 318 319 315 317 319 311 310 310 307 307 307 308 309 310 309 307 308 309 311 311 310 310 310 310 310 311 312 314 314 315 316 317 319 321 323 323 325 329 329 329 332 333 334 334 334 334 334 333 333 332 332 332 332 332 332 333 332 332 332 332 331 331 331 332 331 331 331 330 331 330 330 330 329 329 329 329 328 327 327 327 326 326 326
318 318 318 319 318 318 320 320 319 318 318 316 316 318 319 318 315 316 315 310 310 309 309 310 309 310 310 310 308 306 307 308 309 309 308 308 309 310 311 312 313 314 315 316 318 319 320 321 324 325 326 327 328 330 332 333 333 332 332 332 331 332 331 331 330 330 330 330 330 330 330 330 330 330 330 330 330 330 329 329 330 329 329 329 329 329 328 328 328 328 327 327 327 326 326 325 325
317 318 319 319 319 319 318 319 319 319 318 317 317 318 318 316 315 316 313 309 309 310 310 310 310 310 310 310 307 306 307 307 308 308 307 307 308 310 312 313 314 315 316 317 318 319 320 322 324 326 327 328 329 330 332 331 331 330 329 329 329 329 329 329 329 329 328 327 327 328 328 328 327 328 328 328 328 328 328 328 328 328 328 328 328 328 327 327 327 327 326 326 326 325 325 325 325
317 318 319 320 320 318 318 318 319 317 316 318 317 317 316 313 315 318 313 308 309 310 310 310 310 311 310 311 308 305 306 306 307 306 306 306 306 310 312 314 315 315 316 316 317 318 320 322 324 325 326 328 329 329 329 328 327 326 326 326 326 326 327 327 327 327 326 325 325 326 326 326 326 326 326 327 326 326 326 326 326 326 326 325 326 326 326 326 325 325 324 323 323 323 323 323 324
317 317 319 322 321 320 320 318 318 318 316 317 316 316 319 316 315 317 311 308 309 309 310 310 310 311 310 311 309 306 305 305 306 305 306 306 305 308 311 313 315 315 315 315 316 318 319 320 322 324 324 327 328 326 326 325 324 324 324 324 323 324 325 325 325 324 323 322 322 323 324 324 325 325 326 325 324 324 323 323 323 322 322 322 322 323 323 323 323 322 321 321 321 321 322 322 323
318 317 317 322 323 324 322 317 318 318 316 317 315 318 325 323 316 313 309 308 310 310 310 310 310 310 310 310 310 308 305 304 305 304 305 305 304 307 311 313 314 315 315 315 316 317 318 320 321 322 324 326 325 323 324 324 322 322 322 321 321 322 323 322 321 320 320 320 320 320 321 322 322 323 323 322 322 321 320 320 320 318 318 319 319 319 320 320 320 320 319 319 318 318 318 319 319
320 319 321 322 321 329 327 316 318 318 314 317 316 318 325 325 316 310 309 309 310 311 311 310 310 310 310 310 310 309 305 304 304 304 304 304 304 308 312 313 313 315 315 315 315 315 316 319 321 321 321 323 322 322 323 321 320 320 320 319 318 319 319 318 317 317 317 317 318 318 318 318 318 319 318 319 318 317 317 316 316 315 316 316 316 315 315 315 315 314 313 314 314 313 313 313 314
319 319 329 328 319 331 330 315 317 318 314 314 316 319 321 321 315 310 310 310 311 312 311 310 310 310 309 310 309 308 305 303 304 304 304 304 304 309 313 313 313 314 315 314 313 314 315 315 318 320 319 318 319 321 319 318 318 318 318 316 316 317 317 316 314 314 314 314 315 315 314 315 314 315 315 315 315 314 313 312 312 312 313 314 313 312 312 311 310 308 305 305 306 307 307 308 309
326 320 328 330 321 326 325 316 317 318 316 313 315 320 321 320 315 310 310 311 311 312 311 310 309 309 309 308 307 307 305 304 303 303 303 303 304 308 313 313 312 314 314 314 313 315 315 313 315 317 317 316 315 316 313 315 317 315 315 314 314 315 315 313 312 312 312 312 313 312 311 312 312 312 312 313 312 310 310 309 308 309 310 311 311 310 308 307 306 303 299 298 299 300 302 303 304
331 322 321 326 323 322 322 321 318 316 317 315 314 317 319 320 315 311 311 311 312 312 311 310 309 308 309 308 307 306 306 304 303 302 303 303 303 308 312 311 312 313 313 313 313 314 314 314 313 312 314 315 313 312 311 313 314 313 312 312 313 313 312 311 311 311 311 311 311 310 310 310 310 310 310 310 309 307 307 306 305 305 307 308 308 308 306 305 304 300 296 295 295 296 296 298 301
332 327 323 324 325 323 323 323 319 316 316 316 316 315 315 317 316 312 311 310 311 312 311 310 309 308 308 307 307 306 306 304 303 302 303 303 304 307 309 310 312 311 311 311 312 311 310 312 311 309 311 312 310 310 311 312 312 311 311 310 311 310 309 309 310 310 309 309 309 308 309 308 307 307 306 306 305 304 303 302 301 302 303 305 306 305 304 303 301 297 295 293 293 294 294 295 300
331 330 329 328 325 325 324 323 320 316 317 318 317 316 316 315 316 315 312 311 311 311 311 311 310 308 308 308 307 307 306 303 302 302 303 303 303 306 307 309 310 310 310 310 309 309 308 308 308 307 307 307 307 309 311 311 310 309 309 308 307 305 305 306 307 307 306 306 306 306 306 305 304 303 302 301 300 299 297 296 296 297 299 301 303 304 302 300 296 295 294 293 293 294 294 294 297
324 323 326 327 324 324 325 323 319 317 318 321 319 317 318 316 318 318 313 311 312 311 312 312 310 309 308 308 308 307 305 303 302 302 303 303 303 305 306 308 309 308 309 309 308 308 308 307 307 306 305 305 308 309 309 310 310 309 307 306 302 300 302 303 302 303 303 302 303 303 302 301 300 299 297 296 295 294 293 292 292 293 294 295 298 299 298 295 293 293 293 292 292 292 293 293 294
320 321 322 324 324 324 324 321 318 318 319 324 323 319 319 318 319 320 314 311 312 312 312 312 311 309 309 308 308 307 304 302 301 301 302 303 303 304 305 306 307 307 308 309 308 308 307 308 307 306 305 306 309 311 311 310 310 310 307 303 299 298 299 300 299 298 299 299 299 299 298 297 296 294 293 293 292 292 292 292 292 292 292 292 292 293 293 292 291 291 292 291 291 291 292 292 292
321 323 320 323 327 325 324 322 318 318 319 326 328 323 321 320 319 320 317 313 312 311 311 312 311 309 308 308 308 307 304 303 302 301 302 302 302 303 304 306 307 307 308 308 308 307 307 307 307 306 306 306 308 311 312 310 307 307 305 301 299 297 295 297 296 295 296 296 295 294 293 293 292 292 292 292 292 292 292 292 292 292 291 291 291 291 291 290 290 290 290 290 290 290 291 291 292
323 323 321 325 328 324 325 325 319 318 319 323 325 322 319 318 319 320 318 314 313 312 312 313 313 310 308 308 308 306 304 303 302 302 301 302 302 302 303 304 305 306 306 306 307 307 307 307 307 306 306 306 306 308 309 308 304 303 301 298 298 296 292 292 292 291 292 291 291 291 291 291 291 292 292 292 292 292 292 291 291 291 291 290 291 290 289 289 289 289 289 289 289 289 289 289 290
327 327 324 326 327 324 325 325 321 323 325 322 320 323 325 323 321 320 318 314 314 314 314 316 315 311 310 309 307 305 304 302 302 303 302 301 301 302 302 303 304 305 305 305 306 307 307 306 306 306 306 305 306 306 307 305 302 299 297 294 293 292 290 290 290 289 290 290 290 290 290 291 291 291 291 291 291 291 291 290 290 290 290 289 289 289 288 288 288 288 288 288 288 288 288 288 288
326 329 327 323 324 326 326 326 325 329 334 327 322 329 336 335 327 324 320 315 315 315 314 315 315 312 311 310 308 306 304 302 302 302 301 300 301 301 302 302 303 304 304 304 305 306 306 305 305 305 305 304 305 305 305 304 301 298 295 292 290 290 289 289 289 289 289 289 290 290 290 291 291 291 291 291 291 290 290 290 290 290 289 289 289 288 288 288 287 287 287 287 287 287 288 287 287
325 329 330 326 324 324 324 325 325 332 335 326 323 331 334 331 327 327 325 319 317 315 313 314 313 312 310 308 307 306 304 303 302 302 301 300 300 301 301 301 302 303 303 303 304 304 305 305 304 304 304 304 303 302 302 302 298 295 292 291 290 290 289 289 289 289 289 289 289 290 290 290 290 290 290 290 290 290 290 290 289 289 289 288 288 288 287 287 287 286 286 287 286 286 287 286 286
329 328 331 331 325 325 326 326 327 333 333 325 324 329 328 326 325 324 324 323 320 315 313 312 311 310 309 308 307 305 304 302 302 302 301 300 300 300 300 301 302 302 302 302 302 302 303 303 303 303 303 301 299 298 297 298 295 292 291 291 290 290 289 289 288 289 289 289 289 289 289 289 289 290 290 289 289 289 289 289 289 289 288 288 288 287 286 286 286 286 286 286 286 286 285 285 285
330 326 330 333 329 330 330 328 329 329 328 326 326 326 327 330 329 323 320 321 321 317 314 311 309 309 308 307 307 305 304 302 302 302 300 299 300 300 300 300 300 301 301 301 301 300 301 301 300 300 299 297 296 295 294 294 293 291 291 291 290 289 289 288 288 288 289 289 289 289 289 289 289 289 289 289 289 289 289 288 288 288 287 287 287 287 286 286 286 286 286 285 285 285 285 285 285
325 325 329 333 332 332 331 329 329 327 327 328 327 326 327 331 330 324 319 320 322 319 315 312 309 308 307 307 306 305 303 302 302 300 299 299 300 299 299 299 299 300 300 301 301 300 299 298 298 297 296 296 296 295 294 293 292 292 291 291 290 289 288 288 288 288 288 289 289 289 289 289 289 289 289 289 289 288 288 288 288 287 287 287 286 286 286 286 286 285 285 285 285 285 285 285 285
324 328 332 333 332 332 333 330 327 327 328 328 328 326 326 330 332 328 322 322 323 319 318 315 310 309 307 306 306 304 303 302 302 300 298 299 298 298 298 299 298 299 299 300 300 300 299 298 297 297 296 297 297 296 295 293 292 292 291 290 290 289 288 288 288 288 288 289 289 289 289 289 289 289 288 288 288 288 288 287 287 287 287 286 286 286 286 285 285 285 285 285 285 285 285 285 284
325 332 332 331 331 332 331 326 324 328 329 328 327 324 323 328 334 330 322 321 322 320 321 320 313 309 307 306 305 303 302 301 301 300 298 296 295 296 297 297 298 298 298 298 299 299 299 298 297 297 296 297 296 296 295 293 292 291 291 290 290 289 289 289 289 289 289 289 289 288 289 289 288 288 288 288 287 287 287 287 287 287 286 286 286 286 286 286 285 285 285 285 285 285 285 285 285
325 330 330 328 328 330 331 326 325 327 327 323 322 323 323 324 327 326 322 320 320 321 320 319 315 309 306 306 304 303 302 301 300 299 297 295 294 295 295 296 296 297 297 297 298 298 298 297 297 297 296 296 296 295 294 293 291 291 290 290 290 289 289 290 290 290 290 290 289 289 289 289 288 288 287 287 287 287 287 287 287 287 287 286 286 286 286 286 285 285 285 285 285 284 284 284 284
323 325 328 329 328 330 333 330 327 328 327 322 318 322 325 325 325 323 321 320 321 322 320 318 315 309 306 305 304 303 302 301 300 298 297 295 294 294 294 295 295 296 296 296 296 297 297 297 297 296 295 294 294 294 293 292 291 290 290 290 290 290 290 290 290 290 290 290 290 289 289 288 288 288 287 287 287 287 287 287 287 287 287 286 286 286 286 286 285 285 285 285 284 284 284 284 284
321 322 326 328 330 335 335 332 330 331 330 322 316 322 328 330 327 321 318 318 319 320 317 314 311 308 306 305 303 303 301 300 299 297 296 295 294 294 294 294 295 295 296 296 295 296 296 296 296 295 294 293 293 293 292 291 291 290 290 290 290 290 290 290 290 290 290 290 289 289 289 288 288 288 287 287 287 287 287 287 287 287 286 286 286 286 286 285 285 285 285 284 284 283 283 284 283
321 324 326 326 330 333 331 329 326 324 326 322 319 325 329 327 323 318 316 315 315 317 314 311 310 307 306 305 303 302 301 299 298 297 296 294 293 294 294 294 294 295 295 295 294 294 295 295 295 294 293 293 292 292 291 291 291 291 290 290 290 290 290 290 290 289 289 289 289 289 288 288 288 288 288 287 287 287 287 287 287 286 286 286 286 286 285 285 285 285 284 284 284 283 283 283 283
322 322 324 323 326 328 328 328 322 320 326 326 322 326 325 321 320 319 315 313 313 314 312 310 309 307 305 304 303 302 301 299 298 297 296 294 293 293 293 294 294 294 295 294 294 294 294 294 294 293 293 292 292 292 291 291 291 291 291 290 290 290 290 290 290 289 289 289 288 288 288 288 288 288 287 287 287 287 286 286 286 286 286 286 285 285 285 285 285 284 284 284 283 283 283 283 283
323 323 323 321 324 328 329 330 326 325 328 326 323 325 325 322 323 320 315 316 318 314 312 310 308 306 305 304 302 302 300 299 298 297 295 294 293 293 293 294 294 294 295 294 294 293 293 294 294 293 293 292 292 292 292 292 292 291 291 291 290 290 290 290 290 289 289 288 288 288 288 288 288 287 287 287 286 286 286 286 286 286 285 285 285 285 285 284 284 284 283 283 283 282 282 282 282
322 325 322 323 329 329 327 328 329 329 329 328 327 325 323 322 324 322 318 318 320 316 313 311 308 306 305 304 303 301 300 299 298 297 296 294 293 293 293 293 294 294 294 294 294 293 293 293 293 293 293 292 292 292 292 292 292 291 291 291 291 290 290 289 289 289 288 288 288 288 288 288 287 287 287 286 286 286 286 285 285 285 285 285 285 284 284 284 284 283 283 283 282 282 282 282 282
320 321 319 322 328 327 326 327 327 329 329 330 330 326 325 323 322 324 323 319 318 316 313 311 308 306 305 304 303 301 300 300 298 298 296 294 293 293 293 293 293 293 294 293 293 293 292 293 293 293 292 292 292 292 292 292 291 291 291 291 290 290 290 289 289 289 288 288 288 287 287 287 287 286 286 286 286 286 285 285 285 285 285 285 284 284 284 284 283 283 283 282 282 282 282 282 282
320 321 320 321 321 322 326 325 325 329 329 330 330 326 329 328 321 319 322 319 316 314 313 311 307 306 305 304 303 301 300 300 299 298 296 294 293 293 293 293 293 293 293 293 292 292 292 292 292 292 292 292 292 291 291 291 291 291 290 290 290 289 289 289 288 288 288 288 287 287 287 287 286 286 286 286 285 285 285 285 285 285 284 284 284 284 284 283 283 282 282 282 282 282 282 281 281
319 319 320 321 320 322 326 325 324 325 326 330 330 326 329 330 322 318 318 317 314 312 313 311 308 306 306 304 303 301 301 300 299 298 297 294 293 293 292 292 292 292 292 292 292 291 291 291 291 291 291 291 291 291 291 291 290 290 290 289 289 289 289 288 288 288 287 287 287 287 287 286 286 286 286 285 285 285 285 285 285 284 284 284 284 283 283 282 282 282 282 281 281 281 281 281 281
Wind_Speed
10 8 6 7 7 8 6 3 3 3 4 4 2 3 1 2 3 4 5 3 3 2 2 1 2 3 5 8 9 9 6 2 1 2 2 2 4 4 6 10 11 11 11 11 14 16 15 14 13 12 12 11 11 10 10 11 11 11 11 12 12 12 12 11 10 11 11 11 10 10 10 10 10 11 11 11 11 11 12 11 11 11 13 13 14 15 15 16 16 16 16 15 14 12 10 9 8
10 8 6 6 5 3 2 3 4 2 5 4 1 3 1 3 6 5 5 4 2 3 1 3 4 5 7 9 8 9 8 7 4 3 4 5 4 5 9 10 11 11 9 10 13 16 15 14 13 11 11 10 10 10 10 11 11 11 11 11 11 11 12 11 10 10 10 11 10 9 9 9 9 10 11 10 10 10 11 11 10 11 12 12 13 14 14 15 17 18 19 19 18 15 11 9 7
10 9 8 7 4 2 1 3 4 2 5 4 2 2 2 6 6 5 5 5 2 2 2 4 5 4 6 8 6 6 3 4 6 3 3 2 2 6 10 9 10 10 7 9 12 15 14 14 13 11 11 10 10 9 10 10 10 10 10 10 10 10 11 11 11 10 9 10 9 9 8 8 8 9 10 10 10 10 10 10 10 11 12 12 12 13 14 16 18 20 21 22 21 18 14 11 8
8 8 10 7 3 3 3 3 3 5 4 4 2 2 3 7 6 6 5 3 1 2 2 3 4 3 7 8 3 5 2 1 5 4 2 3 4 7 8 9 10 10 8 8 11 14 14 13 12 12 11 11 10 9 9 9 9 9 9 10 10 10 11 11 10 9 9 9 8 8 8 8 8 8 9 9 9 9 9 9 10 11 11 12 12 13 14 16 19 20 22 23 22 21 16 12 9
8 8 6 4 3 2 2 2 2 5 3 4 3 1 5 7 7 6 4 2 3 5 3 3 3 2 6 4 1 3 2 2 5 7 3 2 7 6 6 9 10 11 9 8 10 12 13 12 12 11 11 10 10 10 9 9 9 9 9 10 10 10 10 10 9 9 9 8 9 8 7 8 9 9 8 9 9 9 9 9 9 10 11 12 12 12 14 16 18 21 23 23 22 22 18 13 10
10 8 3 1 2 1 3 3 3 4 0 4 5 3 6 7 7 7 4 2 3 5 5 4 3 4 5 3 4 3 3 1 2 6 3 4 7 6 6 8 10 11 10 10 10 10 10 11 11 10 10 10 10 10 10 9 9 9 9 10 10 11 10 10 9 8 9 8 8 7 7 8 8 9 8 8 9 9 9 8 9 9 10 11 11 11 12 15 18 20 22 22 22 21 18 14 11
10 7 2 3 2 1 4 3 3 3 2 2 6 5 7 7 6 7 5 3 4 4 5 4 5 6 3 1 4 5 8 6 4 5 4 7 7 9 12 12 12 10 8 12 10 9 10 9 10 10 9 9 9 10 10 10 9 9 9 10 10 10 11 10 9 8 9 8 8 7 6 7 8 8 8 8 10 10 8 8 8 9 9 9 8 9 11 14 17 20 21 22 21 21 19 14 12
5 3 1 4 3 3 5 3 2 2 1 2 4 5 7 7 5 6 5 3 1 2 4 2 6 7 2 2 4 4 12 12 8 7 6 7 8 12 16 14 13 10 10 12 11 10 10 9 10 9 9 8 8 9 10 10 9 9 10 10 11 10 10 10 9 9 9 9 9 8 7 7 7 7 8 8 10 10 8 7 8 9 9 8 7 8 10 13 16 19 21 20 21 21 19 15 13
2 1 2 4 2 3 4 3 2 3 2 2 3 3 4 4 5 5 5 4 3 2 4 2 6 6 1 6 5 2 9 11 9 10 8 7 7 11 14 14 14 13 13 12 10 10 10 9 9 8 8 8 8 8 9 9 9 9 9 10 10 10 10 10 9 8 8 9 9 8 7 7 7 7 7 8 9 9 8 7 8 8 7 6 6 7 10 13 16 19 19 20 20 21 19 16 14
2 1 2 3 2 4 3 1 1 3 2 3 4 4 2 2 4 5 6 5 4 4 3 3 8 6 5 5 3 2 6 6 9 11 9 6 5 9 13 13 13 13 13 12 10 9 8 9 8 7 8 8 8 8 8 8 8 8 8 8 9 10 10 10 9 8 7 8 9 8 7 6 6 6 7 7 8 7 7 7 8 7 6 5 6 8 10 13 16 18 19 19 20 21 20 16 14
3 3 2 4 4 2 2 2 2 3 3 3 2 2 1 2 4 4 5 5 4 4 3 4 7 5 5 4 1 3 7 7 8 10 7 4 4 7 10 12 11 13 13 11 10 8 6 6 6 7 9 10 9 8 8 8 8 8 7 7 8 8 10 10 10 8 7 7 7 7 7 6 5 5 6 7 7 6 6 6 7 8 6 5 6 8 10 13 17 18 18 19 20 20 20 16 14
3 4 4 4 1 1 2 5 4 4 3 4 1 2 1 4 4 2 5 5 4 6 3 3 4 5 4 2 3 3 8 10 6 8 7 3 3 5 7 10 10 12 12 12 10 8 7 4 4 7 9 10 9 9 8 8 8 7 7 7 7 7 8 9 9 8 7 7 6 6 6 5 5 5 5 5 5 4 5 6 6 7 6 4 5 7 9 13 16 17 17 19 20 20 20 17 14
3 1 5 2 2 3 3 4 4 4 2 1 3 3 1 5 3 2 5 6 4 6 2 3 2 5 4 1 2 1 7 10 4 7 7 4 3 5 7 9 10 11 11 12 11 9 8 7 6 8 11 11 10 11 9 7 7 7 7 7 7 6 6 7 8 7 7 6 6 6 5 5 4 4 4 4 5 4 4 5 6 7 6 4 3 5 8 11 14 15 16 18 19 21 20 18 15
2 1 5 1 1 3 4 3 3 4 1 3 2 2 2 2 2 4 8 7 4 3 1 2 3 6 4 2 1 2 5 8 3 6 6 5 5 8 10 9 9 10 9 9 10 9 9 8 8 9 11 10 8 8 7 7 6 6 7 7 7 7 7 7 8 7 6 6 5 5 4 5 4 4 5 4 5 4 4 5 5 6 5 4 2 5 7 10 13 14 16 17 19 21 20 19 16
2 1 4 2 3 2 3 3 4 5 2 3 2 3 3 0 2 7 7 6 1 2 2 5 4 3 3 3 2 3 4 5 3 8 7 5 8 11 11 10 9 8 7 7 8 9 9 9 9 9 9 8 6 5 5 7 6 6 6 6 6 6 7 7 8 7 6 5 4 4 4 4 3 3 4 4 4 4 4 4 4 4 4 3 1 3 6 9 12 13 14 15 18 20 20 20 18
3 3 5 3 2 1 2 2 5 5 2 4 3 4 5 2 2 5 2 5 2 3 4 5 5 3 3 3 4 2 2 3 4 9 9 7 10 12 12 12 11 9 7 6 6 7 8 10 10 10 10 8 7 5 5 6 5 5 5 5 5 5 5 6 6 6 5 5 4 3 3 3 3 2 2 3 4 4 4 4 4 4 4 3 1 2 4 7 10 11 12 13 15 18 19 19 18
4 4 5 3 1 0 1 0 4 4 3 4 2 3 5 1 3 2 1 6 5 4 6 4 6 5 5 4 6 6 5 5 8 10 10 10 10 12 14 13 11 10 8 6 5 4 5 9 11 11 11 10 9 7 6 5 4 3 4 4 6 6 5 5 5 5 5 5 4 3 2 2 2 3 2 3 4 4 3 4 4 4 4 3 1 0 2 5 8 9 11 12 13 15 17 17 18
5 3 3 1 1 1 1 1 3 4 5 4 3 3 6 3 0 0 2 7 6 5 6 4 7 7 7 9 10 9 8 9 11 12 12 11 11 12 13 11 9 9 7 5 4 3 3 6 10 12 11 11 11 8 6 5 3 2 2 3 5 7 7 6 4 4 5 6 5 4 3 1 2 3 1 2 3 3 3 4 4 4 5 4 2 1 1 4 7 8 9 11 11 13 14 15 16
4 3 3 1 3 2 2 2 2 3 6 6 2 4 5 5 2 1 1 2 5 6 4 4 6 6 6 10 12 11 11 13 12 14 16 14 13 12 12 10 9 8 7 6 4 1 1 4 7 10 12 12 12 10 8 7 5 2 2 2 3 5 6 6 5 5 5 6 6 4 3 3 3 3 2 2 3 3 3 3 4 5 6 5 3 2 1 2 6 7 8 9 10 11 12 13 13
2 4 4 3 4 2 4 3 4 2 6 7 3 3 4 2 2 2 2 2 5 5 2 3 4 4 4 6 11 13 14 15 13 14 15 14 14 13 13 11 10 9 7 5 4 3 2 3 5 8 12 13 13 11 10 8 4 3 3 4 4 4 5 6 7 6 5 5 5 3 3 4 4 4 4 3 3 3 3 4 5 5 6 5 4 3 2 3 6 7 7 7 8 8 10 11 11
2 3 3 5 3 3 3 2 5 3 5 7 4 3 3 1 1 3 4 3 2 3 4 4 7 7 6 5 9 13 14 15 14 14 14 13 13 13 13 11 9 8 6 4 4 5 3 1 4 6 10 14 14 12 12 8 4 6 6 5 5 5 6 7 7 6 5 6 5 4 3 4 4 4 3 2 2 2 2 4 6 6 6 5 4 3 3 4 6 7 6 5 5 6 7 8 9
3 1 4 3 4 3 3 1 4 3 5 5 5 4 1 0 1 2 6 4 4 4 4 5 8 8 7 7 9 11 13 13 13 14 13 13 12 12 12 10 8 7 6 6 7 6 5 5 3 4 9 14 15 14 12 6 5 10 9 9 10 10 9 9 9 7 6 5 3 4 3 3 4 5 4 3 2 2 1 2 3 5 3 4 5 4 3 4 5 4 3 4 5 3 4 6 7
3 2 1 3 4 4 3 1 2 3 6 4 3 2 1 3 2 2 5 4 4 5 6 7 8 9 10 10 9 9 10 11 12 12 12 13 12 11 10 10 9 8 8 9 9 8 8 7 5 4 10 15 15 13 9 5 8 11 11 13 14 14 13 11 11 10 9 8 8 8 6 5 6 7 7 6 5 3 2 1 0 2 2 3 6 5 4 2 2 2 1 4 5 2 1 3 6
4 1 3 3 2 4 3 3 1 4 5 2 3 1 1 3 2 0 4 2 4 7 7 9 10 12 13 10 8 8 9 11 12 12 12 13 12 10 9 9 9 8 8 9 9 9 9 7 8 7 11 16 14 10 7 9 12 13 14 16 16 15 14 14 14 13 12 11 10 9 8 8 9 8 8 7 6 4 3 4 4 4 3 3 5 4 3 2 2 2 3 5 6 3 0 3 6
4 0 2 2 1 3 5 5 3 2 2 2 3 0 4 5 3 1 4 5 5 7 8 9 9 11 10 7 7 8 10 11 12 13 14 13 11 10 9 8 8 10 10 9 9 10 9 8 9 8 11 14 11 9 11 14 15 16 17 17 17 15 15 16 16 14 14 13 12 9 8 8 8 8 8 9 7 6 6 6 7 7 8 8 7 5 4 4 4 3 4 5 4 1 1 4 6
1 1 2 2 3 3 4 4 4 4 2 2 2 3 6 4 3 2 4 8 6 7 7 7 8 8 7 6 7 9 9 9 12 13 14 12 10 10 10 9 9 11 10 9 9 10 10 9 9 8 9 10 11 12 15 17 17 18 18 18 17 16 15 15 14 14 14 13 13 11 8 8 9 9 9 10 10 11 12 11 11 11 11 11 9 8 7 6 5 4 4 3 2 1 0 2 3
2 1 4 4 5 5 3 5 6 4 2 4 4 4 5 3 2 3 3 8 7 8 7 6 7 7 6 6 6 10 9 10 11 12 12 12 10 11 10 9 9 10 9 9 9 10 10 10 10 12 12 12 13 16 18 19 20 20 20 20 18 17 16 15 14 14 14 13 13 12 10 10 11 11 11 11 12 14 15 15 15 13 12 11 8 8 7 6 5 5 5 4 2 1 1 1 2
0 3 5 6 6 6 4 6 6 4 2 5 6 3 4 3 2 5 6 8 7 9 8 6 7 6 7 6 6 8 10 11 11 11 12 11 11 11 11 10 9 9 10 10 9 10 11 12 14 17 18 17 17 19 21 22 22 22 21 20 20 19 17 16 16 15 16 16 15 14 14 14 15 15 14 14 14 15 15 15 15 14 13 11 8 7 6 6 6 6 7 6 5 4 2 2 3
1 3 3 7 6 5 6 7 6 6 3 5 7 3 5 3 5 4 8 9 7 8 8 6 7 6 6 6 5 6 10 12 12 12 12 11 10 10 11 11 10 9 10 11 10 10 11 13 17 19 20 20 21 23 23 23 23 23 22 20 19 18 15 15 16 16 17 18 18 18 18 17 16 16 15 14 15 16 16 16 16 15 14 12 10 9 8 8 8 9 10 8 7 5 3 3 3
1 1 1 4 7 5 7 5 6 7 3 6 7 2 6 7 6 4 8 10 8 8 7 6 6 6 6 5 5 5 8 11 11 12 11 10 10 9 11 11 11 10 11 11 11 12 12 14 17 18 20 20 22 24 23 22 22 22 22 21 19 17 16 17 18 18 19 19 19 19 18 17 17 16 16 16 16 17 17 17 17 16 15 13 13 12 12 12 11 12 10 8 8 7 6 6 4
1 2 1 1 2 5 7 1 8 7 1 5 7 2 6 8 5 6 8 9 10 9 7 7 6 6 6 5 5 5 7 11 12 11 11 10 9 9 12 11 11 12 12 13 12 12 14 16 17 17 20 22 22 23 23 23 23 23 22 22 21 21 21 21 22 22 22 22 21 21 20 19 19 18 18 18 18 18 18 18 18 16 15 14 16 16 16 16 15 15 13 11 10 10 10 9 8
1 1 3 2 2 5 7 1 9 7 1 3 6 2 7 8 5 7 7 7 8 8 8 7 7 7 6 6 6 5 6 10 13 11 10 9 8 9 12 12 12 13 13 14 14 15 16 18 19 17 19 24 24 22 25 26 24 25 24 24 24 24 24 24 25 25 25 25 24 23 23 21 21 20 19 19 19 20 20 20 20 18 16 16 18 18 18 18 18 18 18 16 15 14 13 11 10
2 2 3 3 2 4 5 2 5 7 4 2 4 3 4 5 5 7 7 8 8 7 8 9 8 8 7 6 6 6 6 7 10 11 11 9 8 10 13 13 14 15 14 14 15 16 18 19 21 21 20 23 26 26 28 28 25 26 27 26 26 25 25 26 26 26 26 26 25 25 24 23 23 22 21 20 21 22 22 22 21 19 18 18 19 20 20 20 19 20 21 21 20 18 16 15 12
4 1 3 4 3 3 2 4 4 5 6 4 6 5 5 5 4 8 8 9 9 8 9 10 9 8 7 7 6 7 7 6 7 11 12 10 9 11 14 14 15 16 16 16 15 17 20 20 22 25 24 24 27 28 29 29 27 28 28 27 27 26 27 27 26 26 26 25 25 25 24 24 23 23 22 21 22 23 22 22 21 19 18 18 20 21 22 21 20 20 22 23 23 23 22 19 16
3 3 2 4 3 3 4 4 3 6 5 5 5 6 9 10 6 7 8 8 9 9 8 8 8 8 7 7 7 7 7 6 8 13 14 12 11 13 15 16 16 17 17 18 18 19 22 22 22 24 25 25 27 28 28 29 29 29 29 28 28 28 28 27 26 26 26 25 25 24 23 24 23 23 22 22 23 23 23 23 23 21 20 20 21 22 22 20 20 21 22 23 24 26 25 22 19
6 5 4 4 4 4 5 4 4 7 5 5 7 7 10 11 8 8 8 8 9 9 6 6 7 7 8 7 7 7 7 6 10 15 15 13 12 14 16 16 17 18 18 19 20 20 21 22 21 22 23 24 26 27 27 29 29 29 29 29 30 30 29 28 27 27 26 25 25 24 23 23 23 23 24 24 25 26 27 27 26 25 24 23 23 23 22 21 21 22 23 23 23 25 26 24 20
5 4 3 4 4 5 5 4 4 4 3 6 8 8 9 9 8 9 9 8 8 9 7 7 8 8 8 8 8 8 7 7 12 15 14 14 13 14 16 17 18 18 18 20 20 20 21 21 22 22 21 24 26 28 28 28 28 28 29 29 30 30 29 29 29 28 27 26 25 24 25 25 25 26 27 27 28 29 29 29 28 28 27 26 26 25 23 21 21 22 22 24 25 27 28 27 22
6 5 5 5 4 6 5 2 3 0 1 6 5 6 10 8 8 8 7 8 10 12 11 10 11 10 8 9 9 8 6 7 10 13 14 14 14 15 16 17 19 19 19 20 19 20 21 22 24 23 22 24 26 26 25 26 26 27 29 31 31 31 30 30 31 30 29 29 28 28 29 28 29 29 29 29 29 29 29 29 28 28 27 27 26 25 23 23 23 22 22 24 25 27 28 28 25
8 5 3 5 5 4 5 3 3 1 1 4 5 5 9 9 8 8 8 11 11 13 14 12 12 12 9 10 9 8 8 7 8 9 13 15 15 16 17 17 19 20 20 19 19 19 21 22 23 22 22 23 24 24 24 26 28 28 30 32 32 32 33 33 33 33 32 33 32 32 31 30 30 30 29 28 28 28 28 28 27 26 25 25 25 25 25 24 24 23 23 23 23 25 26 27 27
6 5 3 4 4 2 3 4 4 2 1 2 5 6 8 8 8 9 9 8 6 8 10 8 9 11 10 11 10 10 11 10 8 8 11 15 17 17 18 18 19 20 19 18 19 20 20 21 21 22 21 22 23 24 26 28 30 31 32 33 33 35 36 35 36 35 34 35 34 32 31 30 29 29 28 27 28 27 27 27 26 25 25 24 24 25 25 25 24 24 24 23 23 24 24 25 24
4 5 5 4 4 5 6 3 2 3 4 2 3 6 8 6 8 10 5 1 2 4 7 6 6 8 9 9 9 10 11 11 11 9 11 15 18 18 19 20 20 21 20 19 19 20 20 21 21 22 22 22 23 25 28 30 32 34 36 36 36 36 35 35 36 35 34 34 34 32 30 29 28 28 28 27 27 26 26 25 25 25 25 24 24 25 25 24 24 23 23 23 23 23 22 22 22
5 4 7 8 7 7 6 2 3 4 5 3 1 2 7 4 5 8 3 1 5 4 6 8 7 7 8 9 9 9 9 10 11 11 13 16 19 20 20 21 21 21 20 19 19 19 20 21 21 22 23 23 25 27 29 30 33 37 39 39 36 35 32 30 33 33 33 34 33 32 30 28 28 28 27 26 26 25 25 24 23 23 23 23 23 23 23 23 23 22 22 22 22 21 20 21 21
4 5 7 8 8 7 6 1 1 1 5 3 3 2 7 6 5 8 4 6 9 6 6 8 6 7 9 9 9 9 9 9 9 11 14 16 19 21 21 22 23 22 21 20 20 19 21 22 22 23 24 26 28 30 31 32 35 36 36 36 35 36 34 30 31 33 34 33 32 31 30 28 27 27 26 25 24 24 23 22 22 22 22 22 21 22 22 22 21 21 20 20 20 19 19 21 19
4 5 4 6 7 7 6 3 2 4 3 4 2 3 5 9 7 7 7 8 10 9 9 9 7 8 8 8 9 10 10 10 10 10 11 15 19 21 21 22 23 23 22 22 22 22 23 24 25 26 28 30 31 32 32 34 36 35 34 35 34 35 37 34 33 34 33 33 32 31 29 28 26 26 25 24 23 22 22 21 21 21 21 20 20 21 21 20 19 19 18 18 18 18 19 19 17
6 4 5 6 5 4 3 4 1 1 2 4 2 2 3 9 5 1 3 7 10 11 13 12 11 10 9 9 9 9 9 10 10 10 11 14 18 20 21 23 23 23 23 24 24 25 26 28 29 30 32 32 30 29 30 32 34 35 35 36 35 35 37 36 34 34 33 32 32 30 28 27 25 24 23 22 22 21 20 20 20 20 20 19 19 20 19 18 17 17 17 17 17 17 17 16 16
4 3 6 6 4 4 5 4 3 3 2 4 5 4 3 8 4 3 2 5 9 12 12 11 12 11 10 9 8 8 8 8 8 10 12 15 17 20 22 24 24 23 24 24 26 27 29 31 31 31 31 28 26 25 27 30 33 34 35 37 38 37 36 35 34 34 32 31 31 29 27 26 25 24 22 21 21 20 19 19 19 19 19 18 18 18 17 17 17 16 16 16 15 16 16 15 15
6 6 6 7 6 5 4 2 4 2 4 6 10 11 7 6 3 4 4 5 7 8 7 6 9 11 11 10 9 9 8 8 8 9 13 16 18 21 23 24 24 24 24 25 27 29 30 31 30 29 27 25 24 24 26 29 32 34 35 37 39 38 37 36 35 34 32 31 31 29 27 25 24 23 21 21 20 19 18 18 18 18 17 17 17 16 16 16 16 15 14 14 14 14 14 13 13
6 5 5 4 4 4 4 4 4 1 6 6 10 12 11 8 6 3 5 6 5 7 7 7 10 12 12 10 10 10 9 9 9 8 11 15 18 20 23 24 25 25 25 26 28 29 30 30 30 29 26 25 25 26 28 31 32 33 34 36 38 38 37 37 36 35 32 31 30 29 27 25 23 22 21 20 19 18 17 17 17 17 16 16 15 15 14 14 13 13 13 13 13 13 12 11 11
5 5 6 3 1 3 3 2 0 4 6 3 6 7 7 9 8 7 10 10 8 7 7 8 11 12 11 11 11 10 9 9 10 9 9 12 15 19 22 24 26 26 27 28 29 30 30 30 30 29 27 26 27 28 30 32 33 33 34 35 36 36 35 35 34 33 31 30 29 28 26 25 24 22 21 20 19 17 16 16 15 15 15 14 13 13 12 12 11 11 11 11 11 11 10 10 10
5 7 6 5 3 1 3 4 2 4 5 4 3 5 4 6 5 11 15 12 8 6 6 8 11 13 13 12 11 10 10 10 9 9 9 10 15 19 22 24 26 27 29 29 30 31 31 31 30 30 29 28 29 31 32 33 33 33 34 34 35 34 34 33 32 31 30 29 28 26 25 24 23 22 20 20 18 16 15 14 13 13 13 12 11 11 10 10 10 9 9 9 10 10 9 8 9
6 5 6 5 5 4 4 4 4 4 4 4 1 3 4 3 3 7 9 7 5 4 4 5 7 9 10 9 9 10 10 9 8 9 9 12 17 20 22 25 26 28 30 31 31 31 32 32 31 31 31 30 31 32 33 34 33 33 33 34 34 33 32 32 30 30 29 28 27 26 25 23 22 21 19 18 16 14 13 13 12 11 11 10 9 9 8 8 8 7 7 7 8 8 7 6 7
3 3 4 3 6 5 3 3 4 3 2 3 2 4 5 4 5 6 2 4 4 3 1 6 6 7 9 9 10 10 10 9 9 9 9 13 18 21 23 25 27 29 31 31 32 33 33 33 32 32 32 32 33 34 34 34 34 33 33 34 33 32 32 31 31 29 28 27 26 25 24 22 21 19 17 16 14 13 12 11 11 10 9 8 8 8 7 7 6 5 5 5 6 6 5 4 5
2 3 4 4 4 5 2 3 1 2 3 4 4 5 5 3 7 5 1 2 4 1 2 6 6 8 10 10 10 10 10 10 10 10 10 14 19 22 24 26 28 30 32 32 33 33 34 34 34 34 34 34 34 35 35 35 35 34 33 34 33 32 31 31 31 30 28 26 25 24 23 21 19 17 16 14 13 12 11 10 10 10 9 8 8 7 6 5 5 4 4 4 4 5 4 3 4
6 4 6 2 2 1 2 1 3 2 4 5 4 7 5 2 6 3 2 3 6 5 5 6 6 8 10 10 10 11 11 11 10 11 12 16 20 22 25 27 29 31 32 33 33 33 34 34 35 36 36 36 36 36 36 35 35 35 34 34 33 32 31 30 30 29 28 27 25 23 22 20 18 16 15 14 13 12 12 11 10 10 9 8 7 6 5 5 3 3 3 3 3 4 3 3 4
5 4 5 4 1 1 2 2 2 2 4 5 3 5 6 7 6 2 4 9 10 8 6 7 9 11 11 10 10 11 11 10 10 11 11 14 20 23 26 28 29 30 31 32 33 33 33 34 35 36 36 36 37 36 36 35 35 35 35 34 33 32 31 30 29 29 27 26 25 23 22 20 18 16 15 14 13 12 12 11 10 9 9 8 7 6 5 4 3 2 2 2 2 2 2 2 2
2 1 2 2 2 3 4 3 3 3 3 4 3 3 5 7 7 8 11 13 13 11 9 10 12 13 11 10 11 11 11 11 11 11 10 13 20 24 26 28 29 31 31 32 32 33 34 34 34 35 35 35 36 36 36 35 35 35 34 33 32 32 31 30 29 28 27 25 24 23 21 19 18 17 15 14 13 12 12 11 10 9 8 7 6 5 4 3 2 1 1 1 1 1 1 1 1
3 3 4 3 1 2 1 2 2 4 2 3 4 6 7 4 5 10 14 14 14 13 13 12 12 12 12 11 12 12 12 12 12 12 11 13 19 23 25 27 28 30 30 31 32 33 34 35 35 36 36 36 36 36 36 36 35 35 35 34 33 32 31 29 29 27 26 25 24 22 21 19 19 17 15 14 13 12 11 10 9 8 7 6 5 4 4 3 2 1 1 1 1 1 0 0 1
6 6 7 7 5 4 2 4 3 4 3 4 3 8 10 4 4 7 10 11 11 13 14 12 11 12 13 11 12 13 13 13 13 12 11 14 19 23 25 27 28 29 30 30 31 33 34 35 35 36 36 37 37 37 37 36 36 35 35 35 34 32 31 30 29 28 26 25 23 22 21 20 19 17 15 14 13 12 11 10 9 8 7 5 4 4 3 3 2 2 2 2 1 1 1 1 1
Wind_Direction
346 345 354 359 360 349 334 73 66 329 77 87 102 95 45 85 93 73 52 34 59 309 279 74 29 43 85 104 109 89 47 20 116 117 152 166 115 127 115 109 134 149 146 154 163 162 156 151 149 147 143 138 134 125 118 114 108 100 93 94 99 104 103 101 97 99 102 98 92 86 84 83 83 84 83 80 79 77 76 76 76 77 76 76 76 73 66 56 48 44 39 32 26 20 16 15 16
356 0 13 356 351 16 304 91 83 346 56 67 20 101 124 56 67 83 83 80 126 244 282 48 51 58 89 112 103 74 38 6 36 95 120 117 99 116 116 111 136 148 146 154 163 164 159 154 153 150 146 143 139 131 123 119 112 105 98 94 98 107 110 107 102 101 102 98 94 88 85 81 80 85 85 85 83 77 76 75 73 75 76 76 76 73 63 50 42 39 34 30 25 20 16 13 11
3 6 9 6 2 55 45 46 80 76 71 94 359 315 78 76 97 114 113 112 186 242 37 31 45 44 68 74 52 67 63 5 27 56 103 91 50 95 111 109 129 150 152 150 161 168 165 158 157 153 150 147 143 136 128 123 115 108 103 97 97 108 115 114 111 108 105 102 96 87 82 72 73 84 87 91 91 82 79 75 70 69 70 73 72 68 60 47 38 34 30 26 23 21 19 17 17
359 2 351 5 34 30 50 51 98 108 100 136 74 331 94 111 129 118 129 125 50 53 63 48 51 22 72 73 49 74 76 5 18 34 93 52 85 94 103 107 124 151 151 148 160 170 170 163 161 157 154 153 150 143 134 129 120 113 108 103 100 108 117 115 115 115 115 111 102 91 78 66 66 76 84 93 97 89 83 77 69 64 64 69 70 64 55 42 34 30 27 23 20 20 21 25 27
357 4 343 10 74 28 76 73 72 93 129 173 119 144 125 127 130 118 146 123 69 80 81 78 86 34 71 63 34 73 335 283 27 45 69 89 109 97 107 121 130 147 150 149 149 161 171 168 167 162 159 159 157 152 144 139 129 121 115 111 105 108 117 120 121 121 123 115 105 96 80 70 64 65 73 86 99 99 89 81 71 66 66 68 68 60 48 36 29 28 25 22 20 20 22 29 36
357 7 9 56 101 151 83 64 59 70 191 162 126 168 140 131 134 129 128 76 53 90 92 69 105 95 70 38 59 79 325 281 67 35 40 122 110 85 109 128 133 146 156 158 146 147 162 170 174 167 163 162 161 159 153 150 139 129 122 119 113 111 118 127 130 124 123 117 108 100 85 78 69 64 67 77 94 103 94 85 76 71 69 67 67 60 43 31 28 27 25 23 23 23 25 32 40
352 2 44 50 359 67 82 103 111 77 354 112 132 151 135 135 138 128 122 80 16 35 81 91 120 99 70 131 80 44 34 62 96 35 53 118 105 89 108 121 131 139 149 162 158 148 151 162 176 175 170 166 164 164 160 156 146 136 132 128 122 119 121 130 135 131 129 123 117 109 95 86 77 73 73 78 90 99 98 91 86 79 76 76 72 58 36 29 28 27 26 26 27 27 28 35 44
356 1 61 73 15 32 84 106 121 134 47 62 131 143 132 133 129 128 138 123 111 17 41 80 104 90 359 74 100 52 54 62 75 69 79 108 107 106 117 120 124 123 128 153 156 151 153 160 174 178 175 170 170 169 166 161 153 144 141 136 130 128 127 132 139 138 138 134 130 123 113 102 90 86 86 89 95 102 104 103 98 93 89 81 66 47 34 31 31 29 29 30 31 31 31 38 48
46 88 33 75 44 38 79 88 76 127 120 88 98 115 119 114 110 120 118 91 132 101 20 12 83 102 123 65 98 103 57 59 73 77 78 93 111 120 128 118 112 117 120 134 142 147 151 161 175 182 181 177 177 173 169 166 159 153 151 145 136 135 133 136 142 143 145 141 139 134 128 121 109 101 98 99 104 110 112 113 109 104 100 82 58 47 42 40 36 32 32 34 34 35 35 39 49
48 79 64 76 52 55 72 95 100 119 140 143 110 107 103 67 88 97 110 105 119 99 3 33 79 113 137 88 102 76 50 67 79 73 72 80 101 126 141 127 111 115 115 117 125 136 145 161 178 191 190 180 180 174 172 173 168 161 157 153 145 143 140 141 144 146 150 147 143 139 136 133 125 116 111 113 116 121 120 121 116 106 100 83 64 55 48 44 39 35 34 36 36 38 39 41 50
39 346 83 76 42 46 151 145 131 135 137 125 77 75 107 51 73 75 99 105 97 88 351 42 86 120 107 83 147 90 61 68 74 68 72 72 92 122 144 142 125 118 117 116 116 119 129 162 191 203 200 189 183 174 172 179 177 169 164 160 153 150 146 146 149 150 152 151 148 147 146 141 138 128 120 124 127 130 127 127 120 109 102 80 62 55 47 42 39 37 36 39 40 41 43 45 50
65 335 62 80 75 200 176 144 147 145 113 97 78 288 65 55 59 70 95 95 83 80 24 25 115 130 93 76 188 143 47 42 60 75 85 93 83 97 125 146 147 133 123 124 123 121 112 119 187 201 198 185 172 174 178 182 180 173 173 171 159 151 150 152 153 155 155 153 154 154 155 149 144 133 126 132 133 135 133 132 124 114 109 88 61 51 43 40 39 38 41 44 45 45 47 49 53
90 28 78 89 192 139 123 132 160 130 85 148 177 237 73 66 81 144 103 80 67 87 29 318 115 95 92 145 151 175 16 19 49 92 97 100 75 76 99 126 149 152 140 136 133 128 123 125 164 192 193 176 167 181 180 174 184 183 183 180 170 157 157 159 157 162 162 157 155 157 163 162 158 142 140 146 145 147 138 136 129 121 116 103 70 51 41 39 40 41 46 48 47 47 47 50 55
98 125 102 129 303 111 124 117 163 120 102 249 190 199 80 93 145 108 96 76 48 127 182 346 89 92 100 147 74 291 346 8 65 111 108 98 88 83 85 102 130 149 150 153 148 136 134 136 154 177 192 189 188 200 185 169 183 190 188 184 180 170 167 165 159 166 166 157 153 157 163 166 175 152 138 147 158 157 138 144 143 131 126 121 80 52 45 40 43 45 50 52 49 49 48 49 53
111 115 95 89 354 48 148 146 159 122 147 237 193 158 86 104 118 78 98 113 120 216 107 31 48 109 141 162 187 250 332 9 97 127 125 110 98 89 80 87 98 114 127 146 158 155 149 145 150 158 179 194 202 215 199 191 201 206 204 194 188 179 177 175 165 167 164 157 154 154 156 160 175 157 134 138 155 157 139 152 159 144 139 138 86 50 46 43 46 48 54 55 51 50 50 49 51
102 98 73 63 330 329 212 158 122 106 185 222 213 134 86 330 65 86 163 136 128 355 44 13 10 86 116 141 166 165 15 26 132 143 141 130 113 101 87 87 87 85 94 108 131 156 163 159 158 157 166 178 185 191 187 194 202 207 210 206 205 194 185 181 168 169 169 165 165 157 153 154 169 172 155 147 154 164 154 156 169 166 162 158 104 59 49 44 47 50 58 59 52 51 51 50 51
64 72 66 43 294 185 268 96 132 148 186 216 231 114 107 297 12 89 254 83 97 40 53 25 21 72 91 115 128 104 81 85 129 145 146 142 127 109 95 92 91 77 72 80 99 126 157 167 170 167 166 171 174 176 180 186 190 194 203 206 209 207 201 190 172 175 183 182 191 183 164 156 173 177 163 168 171 176 175 167 174 181 185 189 203 87 50 43 49 54 62 62 55 52 51 51 51
56 74 73 31 221 49 286 179 172 154 138 187 203 105 120 163 314 321 21 59 88 68 59 53 48 69 92 109 107 93 95 96 110 117 114 119 114 98 86 83 80 69 62 56 65 105 144 165 174 177 174 172 169 162 157 152 161 186 204 215 207 206 201 194 185 181 190 199 209 200 171 160 168 169 153 173 175 174 185 179 181 190 196 208 225 198 52 40 54 63 67 64 57 54 53 51 50
70 101 72 257 196 35 320 136 107 116 147 171 140 90 114 162 181 82 53 76 103 87 61 74 73 72 85 98 100 93 91 89 94 97 90 87 84 76 69 65 62 54 47 35 18 12 171 172 175 181 178 177 170 157 138 120 124 141 142 164 176 190 193 192 192 187 196 211 224 217 188 196 187 183 196 177 168 174 179 183 190 196 203 214 210 184 139 55 71 79 76 68 59 55 53 49 48
82 99 73 253 198 61 3 74 81 109 142 135 108 86 96 165 173 107 153 102 93 124 148 134 126 131 119 99 98 95 87 82 83 85 80 75 72 67 63 59 53 45 31 15 348 326 286 204 190 184 181 177 168 155 139 120 125 141 121 126 130 150 176 183 184 182 193 208 225 216 178 204 205 192 200 191 182 185 191 205 202 199 207 211 203 189 157 91 93 96 88 80 67 60 56 51 47
57 100 146 231 164 86 338 63 83 74 105 124 136 92 77 238 163 123 146 104 37 199 206 176 158 153 146 124 101 96 89 80 77 77 74 72 69 65 64 59 53 44 19 0 332 315 324 179 187 190 184 172 163 152 138 119 128 153 139 146 156 155 162 163 169 176 185 204 220 199 165 204 196 158 171 189 194 195 236 236 212 204 204 205 207 198 156 106 107 103 87 100 99 75 62 53 48
58 68 170 202 97 113 253 96 70 56 78 97 112 102 120 204 31 147 145 163 223 198 177 143 137 144 143 132 109 95 89 81 78 78 74 74 71 66 63 54 50 41 18 14 359 357 51 88 121 175 178 168 161 146 133 113 134 154 143 150 160 151 143 137 143 149 147 158 163 153 155 191 173 135 130 140 137 143 247 269 232 211 189 197 207 190 157 118 112 112 78 119 134 97 59 51 45
91 305 43 31 75 132 208 120 45 71 81 79 119 148 153 70 316 218 143 179 193 150 142 129 124 132 127 118 109 96 93 91 86 83 81 85 77 69 65 52 44 33 29 31 23 37 67 80 84 128 159 159 153 139 130 129 141 148 143 146 145 133 131 128 130 132 128 130 121 118 118 122 130 123 123 131 135 134 126 98 141 190 145 187 199 184 177 144 108 130 77 134 146 143 62 44 31
95 291 343 2 61 121 153 157 125 91 105 150 124 95 130 132 248 77 114 169 146 127 128 128 126 121 116 108 107 104 103 103 99 91 86 88 81 73 69 57 48 42 48 46 42 52 63 71 75 104 142 145 143 139 145 146 138 137 138 141 135 126 129 126 124 126 124 125 123 124 120 116 118 116 112 110 126 143 134 127 132 152 156 167 177 183 187 157 144 181 192 176 171 189 202 12 9
73 87 300 328 344 150 151 146 145 127 163 172 87 355 232 190 193 164 163 172 145 135 129 127 123 110 108 110 113 109 100 103 108 100 90 86 82 78 71 64 62 59 60 57 56 57 59 72 77 100 138 144 146 149 147 142 136 133 132 134 130 128 128 122 122 122 120 119 118 124 128 124 118 109 100 91 98 112 114 129 135 140 142 137 140 150 150 148 159 165 175 171 157 166 50 18 13
207 144 325 330 296 232 157 150 175 189 213 151 95 268 264 236 195 249 188 169 156 137 135 136 122 110 112 114 117 113 101 99 106 102 93 85 79 76 73 70 70 66 66 70 67 61 64 77 84 104 133 143 145 144 140 134 132 130 125 125 126 127 126 124 126 123 120 120 116 118 120 114 106 101 98 92 92 98 105 114 120 124 124 123 130 129 124 130 134 129 130 116 110 133 35 25 29
225 58 342 303 276 270 178 186 203 191 224 179 169 247 284 299 202 238 193 166 159 137 147 150 125 128 128 115 113 113 106 100 105 105 94 85 81 81 82 81 79 76 79 81 71 66 75 88 96 108 122 136 139 137 135 129 127 125 121 121 121 121 122 123 123 119 117 113 110 114 111 102 98 99 100 100 100 104 107 107 109 114 112 109 119 121 113 118 121 121 113 98 99 86 10 356 18
78 47 340 299 290 293 224 209 213 167 225 185 158 242 304 6 260 226 176 162 161 146 157 155 134 140 134 124 117 111 107 104 108 106 96 93 93 92 94 95 93 85 82 81 74 76 87 102 110 112 120 134 137 131 129 125 123 122 121 120 116 114 115 114 112 111 110 106 104 107 108 106 105 105 104 103 105 106 107 106 106 107 104 102 106 111 111 111 110 102 95 86 77 68 55 51 31
59 57 336 299 332 315 239 217 197 157 191 170 130 333 302 243 239 206 154 157 158 148 158 157 145 146 137 131 122 113 111 108 107 104 103 104 103 101 100 102 105 94 83 84 86 94 102 108 115 117 120 130 133 127 124 122 120 120 119 117 114 113 114 111 109 108 108 106 103 102 104 107 108 108 107 106 106 105 104 104 102 97 95 97 96 96 95 93 93 88 85 83 79 77 73 74 76
345 20 139 303 353 317 254 215 170 154 172 151 125 316 277 251 236 161 150 158 149 149 167 165 152 151 146 137 125 121 115 112 110 109 111 109 106 105 103 106 109 102 95 97 96 103 114 115 118 124 125 130 130 126 127 125 121 119 118 116 114 115 116 112 108 107 107 107 103 101 101 102 102 105 107 107 104 101 99 96 93 90 89 91 90 86 83 81 83 80 74 71 69 61 54 52 50
338 343 35 346 3 289 292 200 154 155 201 130 116 218 259 274 254 171 170 166 154 161 177 173 164 162 156 145 133 127 121 121 119 118 116 111 109 108 109 110 110 108 106 107 105 109 121 123 121 127 130 130 128 126 127 126 124 121 119 117 114 113 112 109 106 106 106 105 104 102 100 100 100 101 102 103 101 97 95 92 89 89 91 92 89 85 81 77 75 71 62 55 53 49 45 39 32
53 31 320 328 175 266 311 23 157 156 217 129 121 205 264 275 237 189 187 174 164 168 180 180 173 169 162 154 144 136 128 125 122 122 122 119 118 118 118 118 114 116 115 112 113 115 121 124 124 129 133 129 127 129 124 122 123 120 119 117 114 113 112 109 107 106 106 105 105 103 102 102 101 100 100 101 101 97 94 92 90 91 93 93 89 84 80 74 68 64 57 51 48 43 38 35 32
352 137 253 270 192 272 318 299 198 152 132 181 187 213 264 269 210 190 193 185 178 175 187 187 179 176 167 160 152 148 141 129 125 126 128 130 132 129 127 124 118 121 122 121 122 121 121 123 123 124 128 126 125 126 121 120 122 118 117 116 114 114 112 109 108 108 107 105 105 104 103 103 101 101 101 100 99 95 93 91 89 89 90 91 88 83 78 72 64 61 58 53 50 46 43 39 32
314 183 234 254 216 242 289 287 262 146 140 200 225 233 248 262 210 191 199 189 186 194 196 191 182 177 171 164 157 160 157 149 145 139 137 137 136 137 134 128 125 123 120 121 126 126 123 125 124 120 124 125 122 121 118 119 121 117 114 114 114 113 110 109 110 108 106 105 104 104 103 102 101 100 98 97 96 92 90 89 87 87 87 89 89 85 80 73 66 63 60 56 53 51 48 40 36
212 194 209 261 251 241 237 261 241 159 165 199 208 239 252 261 245 209 210 192 196 211 202 190 183 173 172 170 165 170 163 158 159 149 144 143 141 140 135 132 132 128 121 119 120 118 115 117 119 117 120 122 120 119 118 118 117 115 113 112 112 109 108 108 108 107 105 105 104 104 104 102 100 99 97 96 94 92 90 87 86 85 86 90 90 87 80 72 67 64 61 57 55 54 49 44 47
183 187 175 202 237 269 245 246 226 167 175 223 210 227 244 250 247 227 219 201 204 220 206 186 186 176 175 174 174 173 161 157 157 151 149 148 147 144 138 137 135 130 128 126 122 120 117 117 117 116 119 122 122 122 122 120 117 115 114 113 109 106 108 108 106 106 106 105 105 105 104 102 101 100 98 97 95 94 91 87 85 83 83 85 85 83 78 71 67 64 61 55 52 52 49 46 49
213 231 232 211 214 268 266 255 255 158 159 241 226 232 247 246 244 232 215 199 207 220 216 202 192 185 182 178 177 166 154 155 152 150 154 153 150 146 141 141 139 133 134 135 131 130 130 129 127 125 127 130 130 128 127 125 123 122 119 115 110 107 109 109 106 107 107 107 107 106 105 104 104 102 100 99 96 94 92 88 85 82 81 81 81 82 80 76 71 66 63 57 52 50 48 44 43
244 248 256 260 234 254 268 257 279 76 184 261 266 265 265 256 249 239 198 188 210 211 208 208 198 192 185 176 171 156 143 147 148 150 155 156 152 147 144 146 145 140 139 141 138 137 136 136 135 135 138 138 136 136 135 131 131 132 125 119 114 110 110 111 109 108 109 109 108 107 106 105 104 102 100 98 96 93 91 88 85 82 82 81 82 81 78 75 71 66 64 61 60 57 53 47 42
236 237 231 257 254 265 297 319 327 15 179 264 306 298 272 264 256 244 203 198 214 210 207 208 196 190 183 175 167 153 149 153 156 157 158 159 156 150 150 151 148 143 142 144 145 144 142 140 141 143 146 145 143 145 144 137 133 133 129 123 120 115 111 112 111 111 111 110 108 107 106 105 103 101 99 96 93 90 87 86 84 83 81 80 79 77 74 72 69 67 64 63 65 63 60 53 48
222 210 193 238 255 253 282 302 303 300 211 261 313 308 275 270 265 250 226 208 212 214 216 215 195 188 182 176 169 158 160 163 164 164 162 162 158 154 153 151 148 146 145 148 149 151 148 146 148 150 151 148 146 144 142 138 132 129 127 124 122 118 113 114 113 111 112 110 108 107 106 104 102 99 96 93 90 88 86 85 84 82 80 77 77 75 73 71 69 68 64 64 64 64 66 59 57
238 201 190 217 238 219 229 272 317 337 339 323 339 317 280 262 255 256 263 210 205 204 202 205 197 186 173 166 168 166 166 166 164 167 168 166 162 159 155 153 152 149 149 151 154 156 153 152 153 154 153 150 147 144 141 139 134 130 127 122 120 117 115 115 114 110 111 110 108 107 105 103 101 97 95 92 90 88 86 86 84 82 80 77 75 74 74 72 69 67 64 64 64 66 70 66 64
268 232 205 210 218 223 235 287 24 3 323 303 79 316 281 276 256 261 295 178 220 214 196 202 192 175 170 168 171 171 168 168 165 167 171 169 165 161 158 158 157 151 151 153 156 158 156 155 156 155 153 150 148 146 145 144 141 136 132 128 125 121 116 114 113 112 112 110 109 108 106 104 101 98 96 93 91 89 87 86 83 82 80 78 77 76 76 73 70 69 65 66 67 65 67 68 65
252 247 206 206 215 228 236 234 54 261 269 281 101 148 274 289 263 248 232 210 226 226 214 213 194 180 182 176 174 171 168 168 167 167 172 171 166 161 161 163 160 152 150 151 154 156 156 155 155 154 152 149 149 147 147 148 143 139 136 132 130 126 120 115 115 115 114 113 112 110 108 104 101 98 96 93 91 89 87 86 84 83 83 81 80 78 77 76 73 72 68 67 69 65 64 67 66
234 246 172 175 202 218 215 169 173 224 258 322 37 121 275 281 262 236 206 210 239 238 227 224 206 197 192 181 177 174 171 168 166 170 174 173 168 164 162 162 159 153 149 150 151 151 151 151 151 150 147 146 146 145 147 149 145 141 138 133 128 125 122 120 120 118 117 117 114 111 109 106 102 99 97 95 92 90 88 88 86 85 85 83 82 81 81 80 78 77 73 70 70 67 66 68 68
239 225 130 129 158 166 137 119 149 299 353 311 276 127 267 272 266 267 171 212 247 245 230 223 209 201 194 186 181 173 170 167 166 169 171 172 169 164 161 159 156 154 152 152 151 149 148 146 146 145 144 144 145 147 149 151 149 144 140 133 127 124 124 124 123 121 121 119 115 113 111 108 105 102 99 97 95 92 89 89 88 87 86 85 83 84 84 82 80 78 75 72 70 70 69 68 69
215 137 89 67 70 73 72 94 93 22 325 237 211 171 236 268 239 121 120 228 242 245 236 222 205 201 194 185 178 168 164 163 162 163 166 170 167 162 159 156 155 155 156 156 154 153 150 148 148 148 149 152 153 156 158 157 153 146 142 137 131 129 128 127 126 124 123 121 118 116 114 111 108 105 102 99 96 95 93 91 90 88 88 87 85 84 84 82 79 76 76 73 70 71 70 67 67
136 90 62 42 25 32 40 57 83 32 272 216 197 188 196 267 267 168 196 222 222 233 242 220 193 194 193 185 177 168 161 162 159 157 161 163 161 159 157 155 156 157 157 158 158 159 157 156 156 155 158 163 163 165 167 163 156 149 145 141 138 136 135 133 131 128 127 125 121 120 118 115 112 108 106 103 101 99 97 94 91 89 88 86 84 82 80 79 78 75 74 72 70 70 70 68 68
108 88 85 66 351 13 18 4 57 230 253 210 198 192 188 232 262 223 228 245 232 220 223 211 192 192 192 185 178 170 163 162 160 156 156 155 154 156 157 156 158 160 160 160 161 163 163 162 162 160 161 166 167 168 170 166 158 151 148 145 142 142 141 139 136 133 132 129 126 125 123 119 116 114 111 108 106 104 100 96 92 88 84 81 78 78 77 76 76 74 70 69 69 69 67 66 62
94 108 112 122 283 3 358 312 152 227 259 248 197 183 197 236 254 255 254 258 250 233 225 207 189 188 187 181 177 171 165 164 162 160 158 158 159 161 161 159 161 163 163 163 164 166 167 167 167 165 164 168 169 169 169 166 158 153 151 149 147 146 144 142 138 137 136 133 130 129 126 124 123 121 118 114 112 108 101 94 89 84 80 79 78 77 77 75 73 71 68 67 67 66 61 59 57
149 143 142 157 171 183 251 247 257 253 269 283 192 164 223 271 265 248 251 256 256 254 243 207 184 184 183 176 171 165 167 167 163 162 162 166 169 168 167 164 165 166 167 166 167 168 169 169 171 168 165 167 168 167 166 163 158 155 154 152 151 149 146 144 142 140 138 135 133 131 129 128 126 124 121 116 114 109 100 94 89 85 84 83 81 79 76 75 73 71 69 66 67 65 59 57 58
180 154 139 160 161 176 215 207 224 252 276 290 249 164 198 214 242 242 247 267 289 297 247 188 171 173 163 155 157 162 170 169 164 165 168 173 173 172 170 169 169 170 170 169 169 170 170 170 172 168 164 165 166 165 163 161 158 158 157 155 153 152 150 148 145 143 140 138 136 134 132 130 127 124 120 116 114 110 103 99 95 92 91 90 87 85 82 79 77 76 74 69 70 67 58 56 56
223 120 115 183 182 181 226 207 183 192 294 280 224 219 216 210 259 263 264 294 311 352 112 142 142 145 140 149 163 168 172 169 168 170 171 175 174 174 174 172 174 173 172 173 172 172 172 170 170 168 164 165 165 164 163 162 161 160 160 158 157 156 154 152 148 145 143 142 140 136 134 131 127 123 120 118 117 113 109 108 106 105 103 102 100 96 93 90 85 84 85 79 78 75 61 60 58
172 144 176 198 169 164 221 280 43 84 274 259 197 244 288 303 272 260 106 297 292 343 151 157 155 150 153 168 172 172 176 173 174 174 173 175 175 176 177 176 177 176 176 176 174 174 174 171 169 166 164 165 166 165 165 164 163 163 163 162 161 161 160 156 151 149 147 145 142 138 134 131 127 125 124 124 124 122 120 118 117 117 114 113 111 107 103 101 94 95 99 91 86 80 64 62 59
131 185 199 139 61 95 139 261 344 42 261 266 203 231 257 239 260 282 89 244 253 240 202 170 162 167 173 181 178 179 178 172 173 173 175 178 177 178 179 180 181 179 178 177 176 176 175 173 171 168 167 167 167 167 167 166 166 166 165 165 165 165 163 159 154 152 151 148 144 140 136 133 131 131 132 132 133 132 130 129 126 123 121 118 116 114 111 111 108 105 105 93 83 77 60 51 48
131 194 195 126 124 212 135 179 234 197 251 283 254 238 230 204 219 218 189 220 228 226 205 184 186 186 186 185 180 180 174 170 175 177 179 180 179 179 178 180 182 181 180 178 177 177 176 175 174 171 170 169 169 169 168 169 169 168 168 169 169 168 165 161 158 156 154 151 146 143 139 137 136 138 140 140 141 140 137 135 130 126 125 123 121 122 121 122 124 113 103 86 75 71 56 48 41
55 80 184 131 138 173 168 178 177 169 234 279 299 285 240 216 200 182 197 214 211 203 197 200 200 193 189 184 179 180 179 180 183 182 184 181 180 180 179 180 181 180 180 178 177 178 176 175 174 172 171 170 170 171 170 170 171 171 171 171 171 170 166 163 161 159 157 153 149 146 143 142 142 144 146 146 146 144 140 137 133 129 130 129 129 131 130 134 136 125 118 105 93 93 74 84 67
159 155 179 188 128 111 184 218 150 143 189 235 269 279 262 233 191 189 200 210 205 195 195 204 204 194 191 186 180 182 183 186 186 182 182 179 177 178 178 180 180 179 179 178 178 178 177 176 175 174 173 172 172 173 172 173 173 174 174 173 172 170 167 166 163 161 159 154 150 148 147 146 147 149 150 149 147 146 143 139 137 135 135 136 137 140 142 148 156 165 163 168 193 191 223 169 88
177 183 190 188 171 139 188 251 205 156 198 195 200 268 267 235 183 205 208 210 205 196 196 202 199 193 193 189 184 185 184 187 187 181 178 176 175 175 176 177 178 178 179 178 178 178 177 176 176 176 175 175 175 175 175 175 175 176 176 174 172 170 169 167 165 163 160 155 153 152 151 151 152 152 151 150 149 147 146 144 142 140 141 142 142 145 152 162 171 187 194 208 223 220 276 315 2